GFSGL_850_thetae_000.txt.gz
Theta_e
309 310 309 309 308 306 306 305 303 300 298 295 294 294 293 292 292 292 292 293 293 292 289 288 287 287 286 286 285 284 284 284 284 288 285 285 285 285 285 285 285 285 286
311 310 309 308 308 306 306 305 303 300 297 295 294 293 292 292 292 292 292 292 292 290 289 288 287 286 286 285 285 284 283 284 284 286 285 285 285 284 285 285 284 283 283
310 309 308 308 307 306 305 304 303 300 297 295 293 292 292 291 291 291 291 291 291 289 288 287 286 286 285 284 284 284 283 283 284 284 285 283 283 283 284 284 281 280 278
310 308 308 308 307 306 305 303 301 300 297 295 293 292 291 291 291 291 291 290 290 288 287 286 286 285 284 284 284 283 283 283 283 282 283 283 281 279 277 278 277 277 277
310 309 309 309 307 304 302 302 300 298 296 295 293 291 291 290 290 290 290 290 289 288 287 286 285 285 284 284 284 283 283 282 281 279 278 277 276 276 277 276 276 276 277
310 310 309 308 307 304 303 301 299 296 295 294 292 291 290 290 289 289 289 289 288 287 286 285 285 285 284 283 282 281 280 278 277 277 276 276 276 276 276 276 276 276 276
310 309 308 308 306 304 302 300 298 296 295 293 291 290 289 289 288 288 288 288 287 286 285 284 284 284 283 282 281 281 279 278 277 276 276 276 276 276 276 276 276 276 276
310 308 307 305 304 303 300 299 297 296 295 293 291 290 289 288 288 288 288 287 286 286 284 283 284 283 282 281 280 280 279 279 277 277 276 276 276 276 276 277 277 278 278
309 308 307 306 304 303 300 298 296 295 293 292 291 289 288 287 287 287 287 286 287 286 284 283 283 282 280 280 279 277 277 278 278 277 276 275 276 276 275 275 274 274 275
307 307 305 304 303 301 298 296 295 293 292 291 290 288 287 286 286 286 285 286 287 284 283 283 282 280 281 280 278 277 277 278 277 276 276 276 276 276 276 273 272 272 273
303 303 302 302 300 298 296 295 293 291 290 289 288 287 286 285 284 284 285 287 285 283 282 281 281 280 279 279 277 277 277 276 275 276 276 276 276 275 275 273 271 272 272
300 300 299 298 297 296 294 294 292 290 288 288 287 285 284 283 283 283 284 285 282 281 281 280 279 280 280 277 277 277 277 276 276 276 276 276 275 274 273 272 271 271 271
298 299 298 297 294 294 292 291 289 289 287 287 286 284 283 283 283 283 282 281 282 281 281 280 279 280 279 277 276 277 277 276 276 276 275 275 274 274 273 272 271 271 271
297 297 298 296 295 294 293 290 288 287 286 286 285 283 282 282 283 282 280 279 279 279 279 279 278 278 277 276 277 276 276 276 275 275 274 274 274 273 273 272 270 271 271
295 297 297 295 298 297 298 296 292 291 288 289 287 284 283 282 284 285 284 281 278 278 278 278 277 277 276 276 276 275 274 275 275 274 274 274 274 273 273 271 270 271 271
293 293 294 296 293 292 292 292 289 284 284 283 283 284 283 283 283 281 279 278 277 277 277 277 276 275 274 274 274 274 273 273 273 273 273 272 272 271 271 270 271 271 271
290 292 293 291 290 289 290 289 284 278 279 278 277 279 281 282 282 280 279 276 275 277 276 275 274 274 274 273 273 273 273 273 272 272 271 271 271 270 269 269 270 270 270
285 287 290 292 293 290 286 284 281 279 277 276 276 277 279 278 278 277 276 275 276 276 274 273 273 273 273 272 272 273 272 272 272 271 271 271 270 269 269 270 270 270 269
283 285 286 287 287 286 284 280 277 276 276 276 275 275 276 277 276 275 276 277 276 274 273 273 273 273 272 271 272 272 271 272 271 271 271 270 270 269 269 269 269 269 269
282 284 285 284 283 280 278 277 275 275 276 275 275 275 275 275 275 276 277 275 273 272 273 273 273 273 271 271 272 271 271 271 271 271 270 270 269 269 269 269 269 269 269
279 280 282 280 279 278 277 275 274 275 275 275 275 276 277 276 277 277 275 273 272 273 273 272 272 272 270 271 271 271 271 271 270 270 270 269 269 269 269 268 268 269 269
278 278 278 277 276 275 274 274 274 273 273 276 277 275 276 277 276 274 273 273 273 273 272 272 272 271 270 270 271 271 270 270 270 270 270 269 269 270 269 268 268 269 268
277 277 276 274 273 273 272 272 272 272 275 277 275 273 276 274 274 273 273 273 272 272 272 272 271 270 269 270 270 270 269 270 270 270 269 269 269 270 268 268 268 268 268
274 273 273 272 272 271 271 271 271 273 274 274 274 275 274 273 273 272 272 272 272 272 272 271 271 270 269 270 269 269 269 269 270 270 269 269 269 269 268 268 268 268 268
271 271 271 270 270 270 270 270 271 273 275 275 274 274 272 272 271 271 271 271 271 271 270 270 270 270 269 269 269 269 269 269 270 270 269 269 269 268 268 268 269 268 268
269 269 269 269 269 270 270 271 273 274 274 273 273 272 271 271 271 271 271 271 270 270 270 269 269 269 269 269 269 269 269 269 270 269 269 269 268 268 268 268 269 268 268

GFSGL_850_thetae_003.txt.gz
Theta_e
310 310 309 309 309 308 309 307 306 306 305 303 300 298 296 294 293 292 292 292 293 293 293 292 291 290 289 288 287 287 286 285 285 286 285 285 286 286 285 286 286 286 287
311 311 310 309 308 307 309 309 306 306 305 303 300 299 296 295 294 292 292 292 292 292 292 291 290 289 289 288 287 287 286 286 285 286 286 285 285 285 284 285 286 286 286
311 310 309 308 307 307 308 308 307 306 305 303 300 299 297 295 294 292 292 292 292 292 291 291 289 288 288 288 287 286 286 286 286 286 285 285 285 285 285 285 285 285 284
309 309 309 309 309 309 307 307 306 306 304 302 300 299 298 295 293 292 292 291 291 291 290 289 288 288 288 287 286 286 285 286 285 285 284 284 283 284 284 284 284 283 282
306 307 308 309 310 308 306 307 305 303 302 301 299 297 296 295 293 292 291 291 290 290 290 289 288 287 287 287 286 286 285 285 285 284 284 284 284 282 282 282 281 282 282
307 307 305 306 307 309 306 306 306 304 300 299 297 296 296 295 293 292 291 290 289 289 289 288 287 287 286 286 286 286 286 285 284 284 283 283 283 281 281 279 279 278 278
305 307 307 305 305 306 305 303 303 301 299 298 297 295 294 294 293 291 290 289 289 289 288 287 286 286 286 285 285 285 284 283 282 281 281 281 280 279 278 277 277 277 277
299 302 300 301 304 303 304 303 302 300 299 297 296 295 294 294 292 290 289 288 288 288 287 286 285 285 284 284 284 283 283 283 281 281 280 280 279 278 277 277 277 277 278
297 297 296 298 299 298 299 299 300 298 298 296 295 295 294 292 290 289 288 288 287 286 285 284 284 284 284 284 285 283 283 282 280 280 279 278 278 277 277 276 277 276 277
296 298 297 295 296 295 295 296 296 296 295 295 294 294 293 293 290 288 287 287 286 285 284 284 284 284 284 283 282 282 281 280 281 280 280 280 279 278 277 277 276 275 275
294 296 298 298 294 294 294 293 293 292 292 292 293 293 291 291 289 287 286 286 286 286 285 285 285 284 282 282 282 281 280 280 280 279 278 278 278 277 277 277 277 275 274
291 292 296 297 298 296 291 291 290 289 290 291 290 290 289 289 286 285 284 286 285 286 285 286 283 281 282 282 282 281 279 279 278 277 277 277 277 277 277 276 276 275 275
289 290 293 295 296 298 298 294 289 287 286 288 288 288 287 287 285 282 283 282 284 283 283 282 281 281 281 281 280 279 278 277 277 276 276 276 275 275 275 275 275 276 275
284 287 289 293 294 295 298 297 294 290 288 286 285 285 285 285 284 280 281 280 280 281 280 279 280 282 280 279 279 278 277 276 275 275 275 274 274 274 274 273 273 273 271
283 284 285 288 291 293 291 293 294 295 295 293 290 289 288 287 286 284 282 280 280 282 282 281 282 279 279 278 278 277 275 275 274 274 274 274 274 273 273 273 272 272 270
280 282 281 283 287 289 291 290 288 288 287 287 285 285 288 286 288 286 283 281 281 283 280 282 280 278 278 277 276 275 275 274 273 273 273 273 273 273 273 273 272 269 270
277 279 279 281 282 285 288 288 289 286 284 285 280 281 283 282 281 281 280 278 280 280 280 281 278 278 277 276 275 275 275 273 272 273 273 273 272 272 272 272 271 269 269
276 277 278 279 280 282 283 286 286 285 283 282 281 278 278 279 279 278 278 277 277 276 281 278 278 278 275 275 275 275 274 272 272 272 272 272 272 271 271 271 270 269 269
274 276 276 277 279 281 282 283 284 282 281 280 280 278 277 277 277 278 277 277 278 281 279 277 276 275 275 275 274 274 273 272 271 271 271 272 271 270 270 271 270 268 268
272 273 274 275 278 279 280 280 281 280 279 278 278 278 277 277 278 278 279 278 280 280 278 276 275 274 274 274 273 273 272 271 270 270 271 271 270 270 269 270 268 268 268
272 273 275 276 277 278 278 278 278 278 278 277 277 277 278 278 279 279 278 279 279 279 275 274 274 274 274 273 272 272 271 271 270 270 270 270 270 269 269 269 268 268 267
273 274 274 276 277 277 276 276 276 276 276 276 276 277 278 278 278 278 278 279 278 275 273 273 273 273 273 272 272 271 271 271 270 270 270 270 269 269 269 268 268 268 267
273 275 276 276 275 275 274 274 274 275 275 275 276 277 278 277 277 277 277 277 274 272 272 273 272 272 272 271 271 271 271 270 270 269 269 269 269 268 268 268 268 268 267
272 273 273 273 273 273 273 273 274 274 275 275 275 276 277 276 276 276 276 272 271 272 272 271 271 271 271 271 270 270 270 269 269 269 269 269 269 268 268 268 268 268 267
270 271 271 271 271 271 272 272 273 273 273 273 274 275 275 275 275 274 271 271 272 272 271 271 271 271 271 270 270 270 269 269 269 269 269 268 268 268 268 268 268 268 267
269 269 270 270 270 271 271 271 271 272 272 273 274 274 275 274 274 271 271 271 271 271 271 271 271 271 271 270 270 269 269 269 269 269 269 268 268 268 268 268 268 268 267

GFSGL_850_thetae_006.txt.gz
Theta_e
305 305 306 307 308 307 307 307 306 305 305 304 303 302 301 299 296 295 294 293 293 293 293 293 293 293 292 292 290 289 288 288 287 287 287 288 289 289 288 289 289 289 289
306 306 306 305 306 306 305 306 306 306 305 304 303 301 301 300 297 296 295 293 293 293 293 293 293 292 292 291 290 288 288 287 286 287 286 286 287 286 287 287 286 286 286
303 304 305 305 304 304 305 305 304 305 306 305 303 303 301 300 298 297 295 294 293 292 292 293 293 292 292 291 290 288 287 286 286 286 285 286 285 285 285 285 285 285 285
299 300 301 303 307 306 304 302 303 303 302 303 305 303 301 301 300 298 296 294 293 292 292 292 292 291 291 290 288 287 286 286 285 285 285 285 285 284 284 284 285 285 285
297 298 299 303 305 305 306 304 302 302 303 301 300 301 300 299 299 299 297 295 294 293 291 291 291 290 290 289 287 287 286 286 286 285 284 284 285 284 284 284 284 284 285
297 296 297 298 299 302 303 303 302 300 300 300 300 299 298 299 299 298 296 295 294 292 291 290 290 290 289 289 287 286 286 286 286 285 286 285 285 284 283 283 283 283 282
294 294 295 297 298 298 298 298 299 299 299 299 299 298 299 297 297 296 295 294 293 292 291 290 289 289 288 287 286 285 285 286 286 287 286 285 284 283 283 282 282 280 280
289 292 293 293 296 298 298 297 294 294 296 297 297 297 297 296 296 295 294 294 293 292 291 290 289 289 288 287 286 285 285 285 286 285 285 284 283 282 282 281 280 279 279
287 288 290 291 291 295 297 297 294 291 292 293 294 295 295 295 295 294 293 293 292 291 290 288 288 288 287 285 285 284 285 285 285 284 284 283 282 281 280 280 279 279 279
284 285 286 287 290 292 295 297 296 292 289 289 291 292 292 292 293 292 292 292 290 289 288 288 287 286 285 285 285 285 284 284 284 283 283 281 281 280 279 279 278 278 277
285 284 285 286 287 290 292 296 296 295 291 289 288 288 289 289 290 289 289 290 289 288 287 286 286 285 284 284 284 284 284 282 283 284 282 281 280 280 279 278 277 277 276
284 284 284 284 285 286 289 292 295 294 295 292 289 287 287 287 287 286 287 288 288 288 287 287 286 285 283 282 281 282 282 282 283 282 281 280 280 279 278 277 277 276 275
283 283 284 284 284 284 285 289 291 293 293 295 290 287 288 287 286 285 284 283 285 285 285 286 285 283 282 280 279 278 279 281 281 280 280 279 279 277 277 277 276 275 275
279 281 283 282 283 282 283 284 288 290 292 291 294 292 289 287 286 284 283 284 282 283 283 282 282 280 279 279 278 278 280 280 280 279 278 278 277 276 276 275 275 275 275
274 276 279 280 280 280 281 283 285 288 288 289 293 293 293 292 292 288 285 284 282 283 282 282 279 278 279 278 278 278 278 278 278 277 277 276 276 275 274 274 274 274 275
271 273 273 274 276 278 278 281 283 285 286 287 286 291 291 291 290 287 283 283 283 282 284 282 279 280 279 279 279 278 277 277 276 276 275 275 275 274 273 273 273 273 274
268 270 271 271 272 274 276 278 279 282 283 282 283 282 283 287 286 287 284 282 281 280 283 280 278 279 280 281 278 277 277 276 275 275 275 274 274 273 272 272 272 272 273
265 266 267 269 270 272 275 277 277 279 281 283 281 281 281 280 280 281 283 281 281 279 279 281 280 281 282 280 277 277 276 276 275 275 274 274 273 272 272 271 271 271 271
264 265 265 266 268 270 273 275 277 278 279 280 279 280 280 280 278 279 281 281 281 278 277 280 282 282 280 277 277 275 275 275 274 274 273 273 272 271 271 271 270 270 270
264 265 265 266 268 270 272 274 276 278 278 278 279 280 280 279 278 279 279 281 279 278 278 280 282 280 278 277 275 275 275 274 274 273 272 272 271 271 270 270 270 269 269
266 267 269 270 270 271 272 274 276 277 277 277 277 278 279 280 278 279 280 280 278 278 278 281 279 279 277 274 274 274 274 273 272 272 272 270 270 271 270 269 269 269 268
268 269 271 271 272 272 274 275 276 276 276 276 276 277 278 278 278 279 280 279 278 278 279 279 278 277 273 273 273 273 273 272 272 271 270 270 270 270 269 269 268 268 268
269 270 271 273 273 273 274 275 275 274 274 275 276 277 279 278 278 278 279 278 278 277 277 276 274 273 272 273 273 272 272 271 271 270 270 270 270 269 269 268 268 268 268
269 270 271 272 272 273 273 273 273 274 275 275 276 277 278 278 278 278 278 278 276 276 274 272 271 272 272 272 272 272 271 270 270 269 269 270 270 269 269 268 268 268 267
269 270 270 271 271 272 272 273 273 274 275 275 276 277 277 277 278 276 276 276 275 274 272 271 271 271 271 271 271 271 270 270 269 269 269 269 269 269 268 268 268 268 267
268 269 269 270 270 271 271 272 272 273 274 274 275 275 275 276 276 276 276 274 273 271 271 271 270 270 270 270 270 270 269 269 269 269 269 269 269 268 268 268 268 267 267

GFSGL_850_thetae_009.txt.gz
Theta_e
302 303 304 303 301 300 301 302 303 303 303 303 304 302 302 302 300 299 298 296 295 294 294 294 294 294 294 294 294 293 293 292 290 289 288 289 289 288 288 288 289 289 289
299 300 301 303 303 302 300 299 300 300 301 302 302 302 301 301 301 300 298 297 296 295 294 293 293 293 293 293 293 292 292 291 290 289 289 289 289 289 290 289 289 289 289
295 297 298 300 301 302 302 301 300 299 300 300 300 301 301 301 301 300 299 297 295 295 294 294 293 293 293 293 292 292 292 291 290 289 288 289 290 290 290 289 289 289 289
293 293 295 294 296 299 300 301 302 300 298 297 298 300 300 300 299 299 299 298 297 295 294 293 293 293 293 293 292 292 291 291 290 288 288 288 288 288 288 288 288 288 287
289 291 292 294 295 294 296 299 299 299 298 298 296 297 298 299 299 298 298 298 297 296 294 293 292 292 292 292 292 292 291 290 289 287 287 287 287 286 286 286 286 284 285
286 287 288 290 290 294 294 294 296 299 298 297 296 295 295 296 298 299 298 298 297 296 294 292 292 291 291 291 291 290 290 290 288 287 286 287 287 286 285 284 283 283 283
286 286 286 286 288 289 292 293 294 295 298 297 294 292 293 294 294 295 296 296 297 297 295 292 291 291 290 290 289 289 289 288 286 286 286 286 286 285 284 283 283 283 282
285 285 286 285 285 286 287 288 290 293 295 297 296 292 292 292 292 292 293 294 294 295 295 294 292 292 290 289 289 289 289 287 287 286 286 285 285 283 283 284 283 283 282
285 285 285 285 285 284 285 285 286 288 293 295 296 295 291 291 290 291 290 290 292 293 294 293 291 291 290 289 288 288 287 286 285 284 284 284 284 283 282 283 282 281 281
284 284 284 285 285 284 284 284 284 284 287 294 295 296 294 290 289 288 287 288 288 290 294 293 292 290 288 288 288 288 287 286 285 284 284 283 282 282 281 282 281 280 279
282 283 284 284 284 284 284 284 284 284 284 288 294 296 296 293 289 287 286 287 290 288 288 289 289 287 287 287 287 286 287 287 284 283 282 282 281 280 280 280 280 279 279
280 281 282 283 283 284 283 283 283 283 284 284 289 293 296 294 290 288 287 286 287 287 288 289 288 286 286 286 286 285 285 283 281 282 281 281 280 279 279 278 279 279 278
276 276 278 279 280 281 281 282 281 282 283 284 284 289 292 294 293 289 289 285 286 285 286 286 287 285 285 284 285 286 283 280 280 281 281 280 279 278 277 278 278 278 277
272 273 273 273 275 277 278 279 279 280 280 282 283 285 290 290 293 291 287 286 286 285 285 284 283 283 282 283 282 282 280 280 281 281 280 278 277 276 276 277 277 278 278
269 268 268 268 268 270 271 274 275 277 278 279 281 283 286 288 290 290 287 284 286 284 284 284 281 280 280 280 280 280 280 280 280 280 279 277 277 276 276 276 277 277 277
264 264 264 264 265 266 266 268 272 273 276 279 279 280 283 286 284 286 285 286 285 283 283 283 280 280 280 280 280 280 280 280 279 280 278 277 276 275 275 276 276 276 276
262 262 262 263 263 264 265 266 268 272 275 278 279 281 281 281 282 281 283 285 284 282 282 283 283 279 279 280 280 280 280 281 281 279 276 276 276 275 275 275 275 275 275
262 262 262 262 263 263 264 265 267 269 272 275 277 279 281 282 282 281 280 282 284 280 280 282 281 280 279 280 280 281 281 280 280 276 275 275 275 275 274 274 274 274 274
263 263 263 263 264 264 264 265 266 268 271 273 275 278 280 282 281 281 281 281 283 281 279 279 280 281 280 280 280 281 280 280 276 275 275 275 274 274 273 273 273 273 273
264 264 264 264 265 265 265 265 266 268 271 274 275 277 278 279 281 282 281 280 282 281 279 278 278 281 281 280 280 279 279 276 274 273 273 273 273 273 272 272 272 272 272
265 265 266 266 267 268 267 267 268 269 272 274 275 276 277 278 280 281 280 280 281 282 280 277 278 280 280 279 279 278 276 274 273 273 272 272 272 272 272 271 271 271 270
265 266 267 268 269 270 270 270 271 272 273 274 275 276 276 278 279 280 280 280 280 281 280 279 279 279 279 278 277 276 274 273 273 272 272 272 271 271 271 271 270 270 269
267 268 269 270 271 271 272 272 272 273 273 274 274 275 276 278 279 279 279 279 279 279 279 279 278 277 276 275 275 273 273 273 272 272 271 271 271 270 270 270 269 269 268
267 268 269 270 271 271 272 272 273 273 273 274 275 275 276 277 278 278 278 278 277 277 277 277 276 275 274 273 273 272 272 272 271 271 270 270 270 270 270 269 269 268 268
267 268 268 269 270 270 271 272 273 273 274 275 275 276 276 276 277 276 275 276 276 276 276 275 274 273 272 271 271 272 271 271 270 270 270 270 270 269 269 269 268 268 268
268 268 268 268 269 269 270 271 272 272 273 273 274 274 274 275 275 274 274 274 275 275 274 273 271 270 271 271 271 270 270 270 270 269 269 269 269 269 269 268 268 267 268

GFSGL_850_thetae_012.txt.gz
Theta_e
296 297 299 300 299 301 301 302 302 300 299 299 299 299 299 299 300 300 300 299 299 297 296 295 294 295 295 295 295 295 295 294 293 293 291 291 290 290 291 290 290 290 290
291 294 294 296 298 297 298 300 301 302 302 300 299 298 298 298 299 299 299 299 298 298 296 294 294 294 294 294 295 295 295 294 294 293 291 290 290 289 290 290 290 290 290
289 289 289 292 292 296 297 295 296 300 300 300 300 298 297 296 296 298 299 298 298 298 298 297 294 293 293 293 294 294 295 294 293 293 291 290 289 288 289 289 289 289 289
288 288 288 288 288 289 290 294 295 295 296 298 299 297 297 296 296 295 295 297 298 297 296 297 296 295 293 292 293 294 294 294 293 292 290 289 288 288 288 288 288 289 289
286 286 286 286 287 287 287 287 289 291 295 295 295 298 297 297 295 295 294 294 295 296 297 297 296 295 294 293 293 293 293 293 292 291 290 289 288 288 289 289 288 289 289
286 286 286 286 286 286 286 286 286 287 288 292 296 295 297 299 297 295 293 294 293 293 294 295 296 296 294 292 291 292 293 293 293 292 291 291 290 288 288 289 289 289 287
285 285 285 285 285 285 285 285 286 285 285 286 287 289 294 295 297 294 292 292 291 291 292 293 294 295 295 293 291 291 291 291 291 292 292 292 290 289 288 289 289 288 287
285 284 285 285 285 285 285 285 285 285 285 285 285 285 287 292 294 295 292 291 292 292 291 291 293 293 294 293 291 290 290 290 289 289 288 288 288 288 287 287 287 286 285
284 284 284 284 284 284 285 285 285 285 285 285 285 285 285 286 290 294 290 291 290 291 292 289 291 290 292 290 290 290 290 289 288 288 287 286 285 285 285 285 285 284 284
281 281 281 282 283 283 283 284 284 284 284 284 285 285 285 285 286 291 292 289 289 288 290 288 287 288 288 288 288 288 288 289 288 287 286 285 284 284 285 285 283 283 282
279 279 278 278 278 279 280 282 282 283 283 284 284 284 285 285 285 285 292 290 289 287 287 286 286 286 285 285 285 286 287 287 287 287 286 284 283 282 284 283 283 281 281
276 276 275 275 275 274 274 276 277 278 280 282 282 283 284 284 284 285 286 293 289 286 286 286 285 285 285 285 284 284 284 284 286 285 283 283 282 286 284 282 280 280 279
273 273 272 271 271 271 270 271 271 273 274 277 277 279 282 284 284 284 285 288 291 286 286 286 285 285 284 283 283 283 283 283 284 284 282 282 284 287 282 279 278 278 279
269 269 268 267 267 267 267 267 268 269 271 272 274 277 279 280 282 284 284 285 289 287 286 286 285 284 284 283 283 283 282 283 283 283 282 282 285 280 280 279 278 278 278
265 264 264 264 264 264 265 265 266 267 268 269 271 274 278 279 280 281 282 284 286 288 285 285 284 283 283 282 282 283 281 280 280 280 280 284 280 279 279 278 276 277 276
263 263 263 263 263 263 263 264 265 266 268 269 271 273 274 276 279 280 281 281 282 284 284 283 281 282 284 282 282 282 280 279 279 279 283 281 279 279 278 277 276 276 276
263 263 263 263 263 263 263 263 264 264 266 267 269 271 274 276 279 281 281 282 281 282 283 283 282 281 283 281 282 281 278 279 280 280 280 279 279 277 276 276 276 275 275
264 264 263 263 263 263 263 263 263 264 264 266 268 271 274 277 280 281 282 282 282 282 283 281 281 281 282 281 280 279 279 280 281 280 280 279 277 277 278 276 274 274 274
263 263 264 264 264 264 264 264 264 264 265 265 267 269 273 275 277 278 281 283 282 282 283 280 280 280 281 280 279 279 280 280 281 280 279 278 277 277 274 274 275 274 273
263 264 265 265 265 265 265 265 265 265 265 266 267 270 274 275 276 279 282 283 282 282 283 280 280 280 280 280 279 279 279 280 280 279 278 277 275 274 275 274 273 272 272
264 265 266 266 266 267 267 267 268 267 267 268 270 272 274 275 276 278 281 282 282 281 281 280 279 279 280 280 279 278 279 279 279 278 276 274 274 275 273 272 272 272 271
265 266 267 267 268 269 270 270 271 270 271 271 272 273 274 275 276 278 280 281 281 281 280 280 279 280 280 280 279 278 278 278 277 276 275 274 274 272 272 272 271 271 271
266 267 268 268 269 270 271 271 271 272 272 273 273 274 274 276 277 279 280 280 280 280 279 279 279 279 279 278 277 276 277 276 276 275 275 274 273 272 271 271 271 270 270
267 267 268 269 269 270 270 271 272 272 273 273 273 274 275 276 277 278 278 278 278 277 277 277 277 277 277 276 275 274 275 275 274 274 273 272 271 270 270 270 270 269 269
268 268 268 268 269 270 270 270 271 271 272 272 272 273 273 274 275 276 276 276 275 275 275 275 275 275 275 274 274 274 274 274 274 273 272 270 270 270 270 270 269 269 268
269 268 268 268 269 270 270 270 270 271 271 271 271 272 272 273 274 274 274 274 274 274 274 273 273 273 273 273 273 273 273 273 271 270 270 270 269 269 269 269 269 268 268

GFSGL_850_thetae_015.txt.gz
Theta_e
291 291 291 291 293 295 297 298 297 297 298 298 298 299 298 297 297 296 296 297 298 298 298 298 298 297 296 295 295 295 296 296 295 295 295 296 294 293 292 291 291 291 292
288 288 289 289 290 290 290 292 294 296 296 296 297 298 298 297 296 296 296 295 295 296 297 297 297 296 295 295 294 295 295 295 294 295 295 296 295 293 291 290 291 291 292
287 287 287 287 287 287 288 288 288 289 293 294 295 296 297 298 296 295 295 295 295 294 294 295 296 297 296 295 295 294 294 294 294 293 294 294 294 293 291 290 290 290 290
287 287 286 286 286 286 286 286 286 287 287 288 289 292 294 298 298 298 294 295 295 293 294 295 294 294 297 296 295 294 294 294 294 293 292 293 292 292 291 290 289 289 289
286 286 286 286 286 286 286 286 286 286 286 286 286 287 287 290 295 298 298 297 295 294 294 295 295 295 293 294 296 295 293 293 293 293 292 292 291 291 292 291 289 289 288
286 286 286 286 285 285 285 286 286 286 286 286 286 286 286 286 286 286 292 297 297 295 293 293 294 294 295 292 292 294 295 293 293 293 292 292 293 293 292 292 289 288 287
286 286 285 285 285 286 286 286 286 286 286 285 285 285 286 286 286 285 285 287 294 296 294 293 292 293 293 294 293 290 290 293 293 293 293 293 292 293 293 291 289 289 289
284 283 284 283 284 284 284 285 285 285 285 285 285 285 285 285 285 285 285 285 285 291 295 292 290 290 291 291 290 290 289 290 290 291 291 292 292 293 293 292 291 288 287
281 281 281 281 281 281 281 282 283 283 284 284 285 285 285 285 285 285 285 285 285 285 289 294 292 289 289 287 287 288 290 289 289 289 289 290 291 290 290 289 287 286 286
280 279 279 278 278 278 278 278 278 278 279 280 282 283 284 284 284 284 284 284 284 285 285 288 294 292 288 287 286 287 287 289 287 287 286 287 287 288 289 289 287 286 286
277 277 276 275 275 275 275 275 275 275 274 275 277 280 281 283 283 283 283 283 284 284 284 285 288 292 289 287 286 286 287 286 287 287 286 286 285 287 287 287 286 285 286
277 277 275 273 271 270 270 270 270 271 271 272 272 274 277 281 282 281 282 282 283 283 284 284 285 290 288 287 286 285 285 285 285 285 285 284 285 286 285 285 284 284 284
276 275 273 270 269 267 267 267 267 268 269 270 270 271 272 274 276 278 281 282 283 284 283 284 285 287 287 287 286 285 284 285 284 284 283 283 284 285 283 282 282 282 282
271 270 267 266 266 265 265 265 265 265 266 267 268 269 270 271 273 275 278 281 282 282 282 284 285 286 287 286 285 285 284 284 284 283 282 282 282 281 281 282 282 282 283
268 266 265 265 264 264 264 264 264 265 265 266 266 267 268 269 270 273 277 280 281 281 281 282 284 285 286 285 284 285 284 284 283 282 282 281 280 281 281 281 281 282 281
265 264 264 264 264 264 264 264 265 266 267 267 268 269 269 270 271 273 274 275 277 280 282 281 283 285 285 285 283 284 284 284 283 282 281 280 279 279 279 280 281 281 280
264 264 264 264 264 263 263 264 264 265 266 267 267 268 269 270 271 272 274 275 277 279 282 282 282 283 283 283 283 283 283 283 282 281 281 279 278 279 280 281 281 280 278
265 265 264 263 263 264 264 264 265 265 265 266 266 266 267 269 270 272 274 276 278 279 282 282 282 282 282 282 282 283 282 282 280 280 280 279 279 280 279 279 279 279 278
266 266 265 264 265 265 265 265 266 266 266 266 267 267 268 268 270 272 275 278 280 282 283 282 282 282 282 282 282 282 282 281 280 279 279 278 278 277 277 277 276 275 275
268 267 266 265 265 266 266 266 267 268 268 268 268 270 271 271 273 275 276 277 278 280 283 283 282 282 281 281 282 282 282 280 278 278 278 278 277 277 277 276 274 276 274
268 266 267 267 267 267 267 267 269 271 271 271 271 272 271 273 275 275 276 278 281 282 283 282 282 281 281 281 281 281 280 278 277 277 278 277 277 277 276 275 275 274 275
267 267 267 267 267 267 268 268 268 269 270 271 271 272 273 274 275 275 277 279 282 282 282 281 281 281 280 280 281 280 279 278 277 277 277 277 276 275 274 274 274 274 273
269 268 268 268 268 268 268 269 269 269 270 270 271 272 273 273 274 275 277 279 280 280 280 280 280 280 279 280 279 279 278 277 277 277 277 276 275 274 274 274 273 273 272
270 269 268 268 269 269 268 268 269 270 269 270 270 270 271 272 273 274 275 276 277 277 277 277 277 277 278 277 276 276 276 276 276 276 276 276 275 274 273 273 272 271 270
270 270 269 269 269 269 269 269 268 269 269 269 269 270 271 272 273 273 273 274 274 275 275 275 275 275 275 275 275 274 274 274 274 274 274 274 274 273 272 271 270 270 269
270 270 269 269 269 269 269 269 269 269 269 269 270 270 270 271 271 272 272 273 273 274 274 274 274 274 274 273 273 273 273 273 273 273 273 273 272 271 270 270 269 269 269

GFSGL_850_thetae_021.txt.gz
Theta_e
287 287 287 287 287 287 287 287 287 287 287 287 287 287 287 287 288 290 295 297 295 294 295 295 296 296 296 297 297 296 296 296 296 296 296 297 297 297 297 298 297 295 294
287 287 287 286 286 286 287 287 286 286 286 286 287 287 287 287 286 286 287 287 289 296 295 294 294 294 294 295 295 295 295 295 296 296 296 296 296 297 297 297 297 296 295
287 287 287 287 287 286 286 286 286 286 286 286 286 286 286 286 286 286 286 286 286 286 287 292 295 293 294 293 294 295 294 294 294 295 295 295 295 296 296 296 296 295 294
288 287 287 287 287 286 286 285 285 285 285 285 285 285 285 285 285 285 285 286 286 285 285 286 286 289 294 294 293 293 293 293 293 294 294 294 294 295 295 295 295 295 295
288 287 287 286 286 285 285 285 285 285 284 284 284 284 284 284 284 284 284 284 285 285 286 286 285 285 286 287 295 296 292 292 292 292 292 293 293 294 294 294 295 295 295
287 286 286 286 285 284 284 284 284 284 284 283 283 283 283 283 283 283 283 283 283 284 284 285 285 286 286 285 285 288 295 292 290 291 291 291 292 292 293 294 294 294 293
286 285 284 283 283 283 283 283 282 282 281 282 282 282 282 282 282 281 281 280 281 281 282 283 283 284 285 285 285 285 285 292 292 290 290 291 290 291 291 292 293 293 294
285 284 283 282 281 281 280 280 280 280 280 280 281 280 279 281 280 278 278 279 279 279 280 280 281 282 283 284 284 285 285 285 288 293 290 292 290 290 290 291 292 292 292
283 283 282 281 280 279 279 279 279 278 278 277 277 276 274 276 274 274 275 276 276 276 277 277 278 279 281 282 284 283 284 284 285 286 292 293 290 289 289 289 288 288 289
282 282 280 279 279 279 278 277 276 275 274 273 272 271 271 271 271 270 271 272 273 273 274 274 276 278 279 281 283 284 285 284 284 285 285 290 292 290 289 289 289 288 288
282 281 279 279 278 277 276 275 274 273 271 269 269 269 269 269 269 268 270 271 272 272 273 274 275 277 279 281 283 284 284 284 284 285 285 286 289 291 290 289 288 288 288
280 279 279 278 277 275 274 274 272 270 269 268 267 267 267 268 268 267 269 270 271 271 271 272 272 274 277 279 282 283 284 285 287 286 286 286 287 289 290 289 289 288 287
279 279 279 277 276 274 273 271 269 269 267 267 265 265 266 267 267 268 268 269 269 270 270 270 271 273 275 277 280 282 283 285 286 287 287 286 286 288 288 288 288 288 288
279 278 277 276 275 273 271 270 269 269 267 265 265 266 267 268 269 269 269 270 271 271 272 272 272 272 273 275 278 281 283 284 285 286 287 287 286 286 286 286 287 286 285
278 277 276 275 273 272 271 269 268 268 265 267 268 268 269 269 270 271 272 272 272 272 273 273 273 273 274 274 276 282 283 283 283 284 287 287 286 286 285 285 286 285 284
277 276 275 274 272 272 270 268 271 269 267 268 268 269 270 270 271 272 273 273 274 274 274 273 272 272 272 273 275 278 280 281 282 284 286 287 286 286 285 284 284 284 283
276 275 274 273 272 271 269 268 267 272 271 269 267 268 269 270 272 273 273 273 274 275 274 273 272 272 273 273 274 276 280 281 283 284 285 285 286 285 284 284 283 283 282
275 274 273 272 272 271 269 268 269 268 267 270 272 268 269 269 270 272 273 274 273 274 274 274 273 272 273 274 275 277 279 281 281 283 284 285 285 285 283 282 282 282 281
274 273 273 272 272 271 269 269 269 268 266 266 268 269 269 269 269 270 270 271 272 273 273 274 275 276 276 276 276 277 279 281 281 282 283 284 284 284 283 282 282 281 281
273 273 272 271 272 271 270 270 269 269 267 266 267 267 267 268 269 271 271 271 272 273 273 273 276 277 278 278 279 278 279 281 281 282 282 283 283 283 282 281 280 279 279
272 272 271 272 271 270 270 269 269 268 267 267 267 267 267 268 268 269 270 271 272 273 274 275 278 278 279 281 281 280 281 281 281 282 282 282 282 282 280 279 279 278 278
271 271 271 271 271 271 270 270 269 269 268 268 268 269 267 269 269 269 270 271 271 272 274 275 276 278 279 280 281 281 281 281 281 281 281 281 280 280 279 278 277 277 277
270 270 271 271 271 270 270 270 270 269 269 268 268 268 269 269 269 269 269 270 271 272 272 274 275 276 276 277 277 278 279 280 280 280 279 279 278 278 278 277 277 276 275
269 269 269 270 270 270 269 269 269 269 269 269 268 269 268 269 269 269 269 269 270 270 271 272 272 273 274 275 275 276 276 276 277 277 276 277 276 276 276 276 275 274 274
268 268 268 269 269 269 269 269 269 269 268 268 268 268 268 269 269 269 269 269 269 270 270 271 271 272 272 273 273 273 274 274 274 274 274 274 275 275 274 274 273 273 273
268 267 268 268 268 268 268 268 268 268 268 268 268 268 268 269 269 269 269 269 269 269 269 270 270 270 271 271 271 272 272 272 272 272 272 272 273 272 272 272 272 272 272

GFSGL_850_thetae_024.txt.gz
Theta_e
288 288 288 287 287 287 287 287 287 287 287 286 286 287 287 286 286 286 286 287 287 287 287 287 292 295 294 295 296 296 296 296 296 296 296 296 296 296 296 297 297 297 297
288 288 287 287 287 287 287 286 286 286 286 286 286 286 286 286 286 286 286 286 285 286 286 286 286 287 288 294 295 294 295 294 294 295 295 295 296 296 296 296 296 297 297
288 288 288 287 287 287 286 286 285 285 285 285 285 285 285 285 285 285 285 285 285 285 285 285 285 286 286 286 286 292 295 294 293 293 294 294 295 295 295 295 296 296 296
288 288 288 287 287 286 286 286 285 285 285 285 284 284 284 284 284 284 283 284 284 284 284 285 285 285 285 285 286 286 286 290 294 293 292 292 293 295 295 295 295 295 295
288 288 288 287 286 286 285 285 285 284 284 284 283 283 283 282 282 282 282 282 283 283 283 283 284 284 285 284 284 285 285 285 285 290 293 291 291 292 294 295 294 294 294
288 288 287 286 286 285 284 284 284 283 283 282 282 282 283 283 282 279 279 279 279 280 281 282 283 283 283 283 284 284 284 284 285 285 286 292 292 291 292 293 293 293 293
288 287 286 285 284 284 283 283 282 282 282 282 282 282 282 282 280 279 276 277 277 278 278 279 280 281 281 281 282 282 283 283 284 284 285 286 290 292 290 290 291 292 293
287 286 285 284 283 282 282 281 281 282 282 281 280 279 279 278 276 275 274 274 275 276 275 276 276 277 278 278 279 280 281 282 283 283 284 285 285 287 291 290 290 291 291
286 285 283 283 282 281 281 281 281 280 280 279 278 276 275 274 272 271 270 270 271 272 272 273 273 273 274 276 277 278 279 281 282 283 283 284 284 284 288 291 289 288 289
285 283 283 282 281 280 280 280 279 278 278 276 276 273 272 272 271 271 269 269 270 270 271 271 272 273 274 275 276 276 277 278 280 281 283 283 284 284 284 290 290 289 288
283 283 282 280 280 280 280 279 278 277 275 274 273 272 271 271 270 270 268 269 270 270 270 271 271 271 272 273 274 276 278 279 279 281 283 284 284 284 284 285 289 290 289
282 282 280 280 279 279 279 278 277 275 274 272 271 270 270 270 269 269 268 269 270 271 271 271 271 271 272 273 274 274 275 277 279 281 283 284 284 285 284 284 286 288 289
282 281 279 279 279 278 278 277 276 274 272 272 270 268 268 269 269 269 269 269 270 271 271 272 272 273 274 274 273 273 273 275 277 278 282 284 285 285 285 285 286 288 288
281 280 279 279 278 277 277 275 274 273 272 271 268 268 268 268 269 269 270 271 272 273 273 273 274 274 273 274 273 273 273 273 274 276 279 283 284 285 285 285 285 286 287
280 279 278 278 277 277 276 274 273 273 271 267 268 269 269 269 269 271 272 273 274 274 275 275 275 275 274 274 273 272 272 273 273 275 279 282 283 285 286 286 286 285 286
279 278 277 277 276 275 275 275 274 273 272 267 268 269 270 270 271 272 272 273 274 274 275 275 275 275 274 274 273 272 272 273 273 277 281 284 284 285 286 285 285 285 285
278 277 276 276 275 274 274 273 272 275 274 271 267 267 268 269 269 270 271 272 271 271 272 273 273 273 273 273 273 272 272 273 274 277 280 281 283 283 285 285 285 285 285
276 275 275 275 274 274 273 272 271 271 271 274 274 269 268 267 268 269 269 270 272 273 272 272 272 270 271 272 273 273 273 273 275 276 280 281 282 283 284 285 285 285 284
275 274 274 274 273 273 272 272 271 271 270 270 271 272 270 270 268 271 270 270 270 271 271 272 272 272 273 275 275 275 275 276 276 277 279 281 282 283 284 284 284 284 283
273 273 273 273 273 272 272 271 271 271 270 270 270 270 269 268 271 271 270 270 270 270 271 271 273 274 275 276 276 277 276 277 277 277 278 280 281 282 283 284 283 283 282
272 272 272 272 272 272 271 271 270 270 270 270 270 270 267 268 269 269 269 269 269 270 270 271 272 273 274 276 277 278 278 279 280 280 280 281 281 282 282 282 283 282 281
271 271 271 271 271 271 271 270 270 270 270 270 270 269 269 270 269 269 269 269 269 269 269 270 271 272 272 274 275 276 277 278 279 279 280 281 281 281 281 281 281 280 279
270 270 270 269 270 270 270 270 270 270 269 269 269 269 269 269 269 269 269 269 269 270 269 270 270 271 272 273 274 274 275 276 277 277 277 278 278 279 279 279 279 278 278
269 269 269 269 269 269 269 269 269 269 269 269 269 269 269 269 269 269 269 269 269 270 270 270 270 270 270 271 272 273 274 274 275 275 275 276 276 277 277 277 277 277 277
269 268 268 268 268 268 268 268 269 269 269 269 269 269 269 269 269 269 269 269 269 269 269 270 270 270 270 270 270 271 272 273 273 273 273 274 274 275 275 275 275 274 274
268 268 268 267 268 268 268 268 268 268 268 268 268 268 269 269 269 269 269 269 269 269 269 270 270 270 270 270 270 270 271 272 272 272 272 272 273 273 273 273 272 272 272

GFSGL_850_thetae_027.txt.gz
Theta_e
289 288 288 288 288 288 288 288 287 287 287 287 286 286 286 286 286 286 286 286 286 286 286 286 286 286 286 286 286 288 292 293 293 296 297 297 298 298 297 297 296 296 296
288 288 288 288 288 288 287 287 287 286 286 285 285 285 285 285 285 285 285 285 285 285 285 285 285 285 286 285 285 286 286 286 288 292 294 294 295 296 297 298 297 296 296
288 288 288 288 288 287 287 286 286 285 285 285 285 285 285 284 284 284 283 284 284 284 284 284 285 284 285 284 285 285 285 285 285 285 286 289 295 295 294 295 297 296 296
289 289 288 288 288 287 286 286 285 285 284 284 284 284 283 283 282 283 282 283 283 284 284 284 284 284 284 284 283 283 284 284 284 285 285 285 286 289 295 294 294 295 295
289 288 288 288 288 287 286 285 284 284 283 283 283 283 283 283 283 282 281 280 280 280 280 281 282 283 283 283 282 283 283 283 283 283 284 285 285 285 286 292 295 293 294
288 288 288 288 287 286 285 284 284 283 283 282 282 283 283 282 281 281 280 279 279 278 277 277 277 278 279 279 279 280 282 283 284 285 286 286 285 286 286 286 289 293 291
288 288 288 288 287 286 284 283 283 282 282 282 283 282 282 281 280 279 278 277 276 275 274 273 273 274 275 276 277 278 279 280 282 283 284 285 286 286 287 287 287 289 292
288 288 288 287 286 284 283 282 282 281 282 282 282 281 281 280 278 277 275 274 273 273 271 271 271 271 272 273 274 275 276 276 277 278 280 282 282 284 287 287 287 288 289
288 288 287 286 284 283 282 282 281 281 281 281 281 280 279 278 276 274 273 272 271 271 270 270 270 271 271 273 274 275 275 275 275 276 278 279 281 283 284 286 287 287 288
287 287 286 284 283 282 281 281 281 281 280 280 279 278 277 276 275 273 271 269 269 269 270 270 271 271 272 273 274 273 273 274 274 275 277 278 278 279 282 284 285 287 287
287 286 285 283 282 281 281 280 280 280 280 279 278 277 276 274 273 272 271 269 270 270 271 271 271 271 272 273 274 274 274 274 275 275 275 275 277 279 280 281 283 286 287
286 285 283 282 281 281 280 280 279 279 279 278 277 276 275 273 273 272 269 270 271 272 271 271 272 272 273 273 274 275 276 276 275 275 274 274 275 277 281 281 282 284 286
284 282 281 281 280 280 279 279 279 278 277 276 275 274 273 273 272 270 270 270 271 272 273 273 274 275 275 275 275 274 274 274 274 274 273 273 273 275 277 280 282 283 284
283 282 280 280 279 278 278 278 278 277 276 275 274 272 270 269 269 269 271 273 273 273 273 273 274 275 274 275 275 275 275 274 274 274 273 273 273 273 275 278 284 283 284
282 280 280 279 278 278 278 277 277 276 275 272 269 269 269 269 270 271 272 272 273 273 274 274 273 273 273 274 274 273 273 274 274 274 273 272 273 273 274 277 282 284 284
281 279 279 278 277 277 277 277 276 275 274 273 271 269 269 269 270 271 271 272 272 272 271 272 273 273 273 273 272 271 272 273 273 272 272 272 272 274 276 278 283 284 284
279 279 278 277 277 276 276 276 276 277 275 274 272 271 268 268 269 270 270 270 270 271 272 272 272 273 273 273 273 273 273 273 272 272 272 272 274 275 277 281 280 283 284
278 277 277 276 276 275 275 274 274 273 274 275 274 271 271 270 268 268 268 270 272 272 271 271 271 271 272 272 274 274 274 273 273 273 273 274 275 276 280 282 283 283 285
277 276 276 275 274 274 274 274 273 272 272 272 273 273 272 272 270 270 270 270 270 270 270 270 270 270 271 272 273 274 275 276 276 275 275 276 277 278 280 281 282 282 283
275 275 274 274 273 273 273 273 272 272 272 271 271 270 272 271 271 271 270 270 270 269 269 269 270 270 270 271 272 273 275 276 276 277 278 278 279 280 280 281 283 283 283
274 273 273 272 272 272 272 272 272 271 271 271 270 270 267 268 269 270 270 270 269 269 269 269 269 269 269 270 271 272 273 275 276 277 277 278 279 280 280 281 281 282 283
272 272 271 271 270 270 271 271 271 271 270 270 270 270 269 269 269 269 269 269 269 269 269 269 269 269 269 269 270 271 272 273 274 276 277 277 278 279 279 280 281 281 281
270 270 269 269 269 269 270 270 270 270 270 269 269 269 269 269 269 269 269 269 269 269 269 269 269 270 270 270 270 269 270 272 272 273 275 276 276 277 277 278 279 279 280
268 268 268 268 268 268 269 269 268 269 269 269 269 269 269 269 269 269 269 269 269 270 269 269 269 269 270 270 270 270 270 271 272 273 273 274 274 275 276 276 276 277 277
266 267 268 268 268 268 268 268 268 268 268 268 269 269 269 269 269 269 269 269 269 269 269 269 269 270 270 270 270 270 270 271 272 272 272 273 273 274 274 274 274 275 275
265 266 267 267 268 268 268 268 268 268 268 268 268 268 268 268 268 268 268 269 269 269 269 269 269 270 270 270 270 270 270 270 272 272 272 272 272 273 273 273 273 273 273

GFSGL_850_thetae_030.txt.gz
Theta_e
289 289 289 289 289 288 288 288 287 287 286 286 285 285 285 285 286 286 285 285 285 285 285 285 285 285 285 285 285 285 285 285 284 285 287 287 288 289 295 297 296 298 300
289 289 289 289 288 288 288 287 287 286 286 285 285 285 285 285 285 285 284 284 284 284 285 285 285 285 285 284 284 284 284 284 283 283 285 286 287 287 287 288 296 297 297
289 289 289 289 288 288 288 287 286 286 285 285 284 285 284 284 284 284 284 284 284 284 284 284 284 284 283 283 283 284 284 284 284 283 283 284 285 286 286 287 287 289 297
288 289 289 288 288 288 288 287 286 285 285 284 284 284 284 283 283 283 283 283 283 283 283 282 282 282 281 281 280 281 281 282 282 283 283 283 284 285 285 285 286 286 287
288 289 289 288 288 288 288 287 286 285 284 283 283 283 283 283 283 283 282 282 282 282 281 280 279 277 277 278 278 279 279 279 280 281 282 283 284 284 284 285 285 285 286
289 289 288 288 288 288 288 287 286 284 283 283 283 283 283 283 282 282 281 281 281 279 279 277 276 275 274 274 275 276 278 279 280 280 281 282 283 284 284 285 285 286 285
289 289 288 288 288 288 287 287 285 284 283 282 282 282 282 282 281 281 280 279 278 277 275 274 274 273 272 272 273 273 274 275 276 278 279 279 280 281 282 283 284 285 286
289 288 288 288 288 288 287 287 284 283 282 282 282 282 282 281 280 280 278 277 276 275 273 272 272 272 271 271 272 272 273 274 274 274 275 276 277 277 278 279 281 283 285
288 288 288 288 288 287 287 285 283 282 282 282 282 281 281 280 279 278 276 275 274 272 271 272 271 271 271 272 273 273 273 273 273 274 275 276 277 277 278 279 280 281 284
288 288 288 288 288 287 286 283 282 281 281 281 281 280 279 279 277 276 275 273 271 271 271 271 272 271 272 273 274 273 274 274 274 274 275 275 275 275 275 276 277 278 280
288 287 287 287 287 286 285 282 282 281 280 280 280 280 278 277 277 276 275 270 271 271 272 272 272 272 273 274 274 275 274 275 276 276 276 276 275 275 275 275 275 276 278
287 287 287 286 286 285 283 281 280 280 280 280 279 279 278 277 277 276 273 271 272 272 272 272 272 273 274 275 276 277 277 277 276 276 275 275 274 274 274 274 274 274 276
287 286 285 285 284 282 281 280 279 279 279 279 278 277 277 276 276 275 272 272 272 272 273 273 275 275 275 275 275 275 275 276 276 275 275 274 274 274 274 273 273 273 273
286 285 285 284 283 281 280 279 278 278 278 277 277 276 275 274 273 273 272 272 272 272 273 273 273 272 273 273 274 274 274 274 273 272 273 273 273 273 273 273 273 272 273
285 284 283 283 282 280 278 278 277 277 277 276 275 273 271 271 272 271 272 272 273 272 271 272 273 273 273 274 274 274 274 275 274 274 273 272 272 273 272 272 272 272 273
284 283 282 282 279 278 278 277 276 276 276 275 274 271 270 270 270 271 272 271 271 271 272 271 272 272 272 272 273 274 275 275 275 274 273 272 272 272 272 272 272 273 273
282 281 281 279 277 277 276 276 277 276 275 275 274 272 272 269 269 270 270 270 271 271 271 271 270 270 270 271 271 271 272 273 273 274 273 273 273 273 273 274 274 274 275
281 280 278 277 276 276 275 275 275 275 275 275 274 272 272 272 271 268 269 271 272 271 271 270 270 269 269 269 270 271 272 273 273 274 274 275 274 274 275 275 276 277 281
279 278 276 276 275 274 274 274 273 273 273 273 273 273 271 271 271 270 270 270 271 271 270 270 269 269 269 269 269 270 270 271 272 273 274 274 275 275 277 278 278 279 281
277 276 275 274 273 273 272 272 272 272 272 272 272 272 272 272 272 271 270 270 270 270 270 270 270 269 269 269 269 269 270 271 271 272 273 274 275 276 277 278 279 279 281
274 274 273 273 272 271 271 271 271 271 271 271 271 270 270 270 270 270 270 270 270 270 270 270 270 270 269 269 269 269 269 269 270 271 272 274 275 276 277 278 279 280 280
272 271 271 271 270 270 270 270 270 270 270 270 270 270 269 269 269 270 270 270 270 269 269 269 270 269 269 269 269 269 269 269 269 271 272 273 274 275 276 277 278 279 280
270 269 269 269 268 268 268 268 269 269 269 269 269 269 269 269 269 269 269 270 269 269 269 269 270 270 270 269 269 269 269 269 269 270 271 272 273 274 275 276 276 277 278
267 267 267 267 267 267 267 267 267 268 268 268 268 268 269 269 269 269 269 269 269 269 269 269 269 269 270 270 269 269 270 269 269 271 271 271 272 273 274 274 275 276 276
265 265 265 265 265 266 266 266 267 267 268 268 268 268 268 268 268 268 268 268 268 269 269 269 269 269 270 270 269 270 270 270 270 271 271 271 272 272 272 273 274 274 275
263 263 264 264 265 266 266 266 267 267 268 268 268 268 268 268 268 267 267 267 267 268 268 268 268 268 269 269 269 269 269 269 270 271 271 271 271 271 271 272 272 272 273

GFSGL_850_thetae_033.txt.gz
Theta_e
290 289 289 289 289 289 288 288 288 287 287 286 286 285 285 285 285 285 285 285 285 285 285 285 285 285 285 285 284 284 284 284 283 283 284 285 285 285 286 287 287 288 289
289 289 289 289 289 288 288 288 288 287 287 286 285 285 284 285 285 285 285 284 284 284 284 284 284 284 284 284 283 283 283 283 282 282 283 284 285 285 285 285 286 287 287
289 289 289 289 289 288 288 288 288 287 287 286 285 284 284 284 284 284 284 284 284 284 284 283 283 283 283 282 282 281 280 280 280 280 282 282 283 285 285 285 285 285 286
289 288 289 289 289 288 288 288 288 287 287 286 285 284 283 283 283 283 283 283 283 283 283 282 282 281 280 279 279 279 278 278 278 279 279 280 280 282 283 284 285 285 285
289 289 288 289 289 288 288 288 288 288 287 286 284 283 283 283 283 283 283 283 283 283 282 281 280 279 278 277 275 275 275 276 276 277 278 279 279 280 281 283 283 284 285
290 289 288 289 288 288 288 288 287 287 287 286 284 283 282 282 282 282 282 282 282 281 281 279 278 277 276 275 273 273 274 274 274 275 276 277 277 278 279 281 282 282 283
290 289 289 288 288 288 288 287 287 288 287 286 283 282 282 282 282 282 281 281 281 279 278 277 276 276 274 273 273 272 272 273 273 274 275 275 275 275 276 277 278 279 280
290 289 288 288 288 287 287 287 287 287 287 285 283 282 282 281 281 281 280 280 280 278 277 275 274 274 273 271 272 272 273 273 273 274 274 274 275 275 276 277 278 279 279
291 289 288 288 287 287 287 287 287 287 286 283 282 281 281 281 280 280 280 279 278 277 275 274 273 273 272 272 274 274 274 273 274 274 275 275 276 276 277 277 276 276 277
289 289 288 287 287 287 287 287 287 286 286 283 282 281 281 280 280 279 279 278 277 275 273 273 273 272 273 274 274 274 274 275 275 276 276 276 276 276 276 276 276 276 275
289 288 288 288 287 286 286 286 287 286 285 283 281 281 280 280 279 278 278 276 273 273 273 272 273 273 274 275 275 276 276 277 277 277 277 276 276 275 275 275 275 275 275
288 288 288 287 286 286 286 286 286 285 284 282 280 280 279 279 278 278 277 273 272 273 273 273 273 274 275 275 274 274 274 275 275 275 275 275 275 275 275 275 275 274 274
288 288 287 286 286 285 285 285 285 284 283 280 280 279 279 278 277 277 275 273 272 273 273 273 273 272 272 273 274 273 273 274 274 274 274 275 275 274 274 274 274 273 273
288 287 286 285 285 284 284 284 284 283 280 279 278 278 277 277 276 274 274 273 273 272 272 272 272 272 273 272 273 274 274 274 274 274 274 275 275 275 274 273 273 273 272
287 286 285 284 284 283 282 283 282 280 278 278 277 277 276 274 273 272 272 273 273 272 271 272 272 273 272 272 273 273 273 273 273 274 274 274 274 273 273 273 273 273 272
287 285 284 283 282 282 283 282 279 278 277 276 275 273 272 271 270 271 271 272 272 271 272 271 272 271 271 271 271 271 272 272 272 272 272 273 272 273 274 274 273 273 273
285 284 283 282 281 282 281 280 279 276 276 275 275 274 273 272 270 270 270 270 271 271 271 271 271 271 271 270 270 270 270 270 271 271 272 272 273 273 273 274 275 274 275
283 283 282 281 281 280 279 278 277 276 276 275 274 274 273 271 271 268 269 271 271 271 271 271 271 270 270 270 270 269 270 270 270 270 271 271 272 272 273 274 274 275 276
281 280 280 279 279 278 276 275 275 274 274 274 273 273 272 271 271 270 270 270 271 271 271 271 270 270 270 269 269 270 269 270 270 270 270 270 271 272 273 274 274 276 277
279 279 278 277 276 275 274 273 273 272 272 272 272 271 272 271 271 271 270 270 270 270 270 270 270 270 269 269 269 269 270 270 270 270 269 270 271 272 272 273 275 276 276
276 275 274 273 273 272 272 271 271 270 271 271 271 270 270 270 271 270 270 270 269 270 269 269 270 270 269 269 269 269 269 270 270 270 269 270 271 271 272 273 274 275 277
274 273 272 272 271 270 270 269 269 269 269 269 270 270 269 269 269 269 270 269 269 269 269 269 270 269 269 269 269 269 269 270 269 270 269 270 271 271 272 273 274 275 276
271 270 270 269 268 268 268 268 267 267 268 268 268 269 268 268 268 269 269 269 269 269 269 269 269 269 269 269 269 269 269 269 269 270 270 270 271 271 272 272 273 274 275
269 267 266 266 265 265 265 265 265 266 266 266 267 267 267 268 268 268 268 269 269 269 268 268 268 268 268 269 269 269 269 269 269 269 270 270 271 271 271 272 273 273 274
266 265 264 264 264 264 264 265 265 266 266 266 267 267 267 267 267 268 268 267 268 267 267 267 267 267 268 268 269 269 269 269 269 269 270 271 271 271 271 271 272 272 273
265 264 264 263 263 263 264 264 265 265 266 266 266 267 267 267 267 267 266 266 267 267 267 267 267 267 267 267 268 269 269 269 269 269 270 270 270 271 271 271 271 271 272

GFSGL_850_thetae_036.txt.gz
Theta_e
293 292 291 291 290 290 289 288 288 288 287 287 287 286 286 285 285 285 285 285 285 285 284 284 284 284 284 284 283 283 282 282 282 283 283 283 285 284 285 285 286 287 287
292 291 291 290 289 289 288 288 288 288 287 287 287 287 286 285 284 284 284 284 284 284 284 284 284 284 284 283 282 282 281 280 280 281 281 282 282 284 284 284 285 284 286
291 290 290 289 289 289 288 288 288 288 288 288 288 287 285 284 284 284 284 284 283 283 283 283 283 283 282 281 280 280 279 279 278 279 280 280 280 281 281 282 283 283 284
291 290 289 289 288 288 288 288 288 288 288 288 288 287 285 284 283 283 283 283 283 283 283 282 282 282 281 280 279 278 277 277 277 277 277 278 279 280 281 281 282 283 284
291 289 289 288 288 288 288 288 288 288 288 288 287 287 286 283 282 282 283 282 282 282 282 282 281 280 280 279 277 276 275 275 275 275 276 276 277 278 278 279 279 280 282
292 290 289 288 288 288 288 288 288 288 287 287 287 287 286 283 282 282 282 282 282 282 281 281 280 279 278 277 275 273 273 274 274 274 274 275 276 277 277 277 277 277 278
293 290 289 289 288 288 288 288 288 287 287 287 287 287 286 283 282 282 282 282 281 281 280 280 279 278 276 274 273 273 273 273 274 274 275 275 275 276 276 276 276 276 277
292 290 290 289 288 288 288 287 287 287 287 286 287 287 286 283 281 281 281 281 280 280 280 279 278 277 275 273 273 274 274 274 274 274 275 275 275 275 276 276 277 277 277
293 291 291 290 289 288 288 287 287 286 286 286 286 286 285 282 281 281 281 280 280 280 279 278 276 274 273 274 275 275 275 275 276 276 276 276 277 277 277 278 277 277 277
291 291 290 289 289 288 287 286 286 286 285 286 286 286 285 282 280 280 280 279 279 278 278 276 274 274 274 275 275 275 276 277 276 276 277 277 277 276 276 276 276 276 276
289 289 288 288 288 287 287 286 285 285 285 286 286 285 284 282 280 279 279 278 278 276 275 274 274 274 274 275 275 275 274 275 274 274 275 275 276 276 276 276 276 276 276
289 288 289 288 288 287 286 286 285 285 285 285 285 285 283 280 279 279 278 277 276 274 274 274 273 273 272 274 274 273 272 272 273 273 274 275 274 275 275 275 275 275 275
289 289 289 288 288 287 286 285 285 285 284 284 284 284 281 279 279 278 277 276 275 273 273 273 273 273 273 273 274 273 273 273 272 271 271 273 273 275 276 276 276 275 275
289 289 288 288 287 286 285 285 284 284 283 284 283 281 279 279 278 277 276 275 273 273 273 273 273 272 272 273 273 273 272 272 271 270 269 270 273 274 275 275 273 274 273
289 288 287 287 286 285 284 284 283 283 283 283 281 279 278 278 277 276 274 273 273 274 272 273 272 272 272 272 272 272 271 271 270 268 269 271 272 272 274 274 273 272 272
288 287 287 286 285 284 283 283 282 282 282 281 280 278 277 277 275 272 272 272 273 272 272 272 272 271 271 271 271 271 271 270 270 270 270 269 270 271 272 273 272 272 273
287 286 286 285 284 283 282 281 281 281 280 279 277 276 276 275 271 271 271 272 272 271 271 271 271 271 271 271 271 271 271 270 270 270 270 270 270 270 270 271 272 272 273
287 287 284 283 282 281 280 279 279 279 278 277 276 275 274 274 273 270 270 270 272 271 271 271 271 271 271 271 270 270 271 270 270 270 270 270 269 268 270 271 272 271 273
285 283 282 281 280 279 278 278 277 277 276 275 274 273 273 273 272 271 270 271 271 271 270 270 270 270 270 270 270 270 270 270 270 270 270 270 269 268 270 271 271 272 273
282 281 280 279 278 278 276 275 274 273 272 272 272 272 272 272 271 271 270 270 270 270 270 270 270 270 270 269 269 270 270 270 269 269 270 270 270 269 270 270 271 272 273
279 277 276 275 274 273 273 272 271 270 270 270 270 270 270 270 270 271 270 270 269 269 269 269 269 269 269 269 269 269 269 269 269 269 269 269 270 269 270 270 271 272 272
275 275 274 273 272 271 270 269 269 268 268 268 269 269 269 269 270 269 269 269 269 269 269 269 269 269 269 268 268 269 269 269 269 269 269 270 270 269 270 270 271 271 272
273 272 271 270 269 268 267 267 266 266 266 266 267 267 268 268 268 268 268 268 268 268 268 268 268 268 268 268 268 268 268 269 269 269 269 269 270 270 270 270 271 271 272
271 270 269 268 267 266 265 265 264 264 264 264 265 266 266 267 267 268 268 268 268 268 268 268 267 267 267 268 268 268 268 269 269 269 269 269 269 270 270 271 271 271 271
269 268 267 267 265 265 264 264 264 264 264 264 265 265 266 266 267 267 268 268 268 267 267 267 267 267 267 267 267 267 268 269 268 268 268 269 269 270 270 270 271 271 271
267 267 266 266 265 264 264 264 264 264 264 264 265 265 265 266 266 267 267 267 266 267 267 267 267 267 267 267 267 267 267 269 269 269 268 269 269 270 270 270 270 270 270

GFSGL_850_thetae_042.txt.gz
Theta_e
298 298 297 297 296 294 294 293 292 292 291 290 290 289 288 288 288 288 287 286 285 284 284 284 284 284 284 283 283 282 282 281 280 284 281 281 280 280 281 282 281 281 281
297 297 297 296 295 294 293 292 292 291 291 290 289 288 288 288 288 288 287 287 285 284 284 283 283 283 283 283 283 282 282 281 279 280 281 281 279 278 278 279 280 279 279
297 296 296 295 294 293 293 292 291 290 290 289 289 288 288 288 288 288 287 287 286 285 283 283 283 283 283 283 282 282 281 281 280 279 281 279 279 277 277 277 277 278 277
296 296 296 295 294 293 292 291 290 290 289 289 288 288 288 288 288 287 287 287 286 286 284 283 282 283 283 282 282 281 281 280 279 278 278 277 277 277 276 276 276 277 277
296 296 296 295 293 292 291 290 289 289 289 288 288 288 288 287 287 287 287 287 286 286 284 283 282 282 282 281 281 280 279 279 278 276 276 276 276 276 276 276 276 276 277
296 297 296 295 294 292 291 290 289 289 288 288 288 288 287 287 287 287 287 286 286 286 285 283 282 281 281 281 280 279 278 277 276 276 276 276 276 276 276 276 276 276 277
298 298 297 295 294 292 291 290 289 288 288 288 288 287 287 287 287 286 286 286 286 285 284 283 281 281 280 280 280 279 278 277 276 276 276 276 277 277 277 277 277 277 277
298 298 296 295 294 292 291 289 289 288 288 287 287 287 287 286 286 286 286 286 286 285 284 282 281 280 280 279 279 278 277 276 276 275 275 275 275 276 277 277 277 276 276
298 298 297 296 294 292 291 290 289 288 288 288 287 287 286 286 286 285 285 286 286 285 284 281 280 279 279 278 277 277 276 276 276 275 275 274 274 274 274 274 275 275 276
297 295 294 294 294 293 292 290 289 288 288 287 287 287 286 286 285 285 285 285 285 285 283 281 280 279 277 276 277 276 275 275 274 275 275 275 275 274 274 273 274 274 275
293 294 294 294 294 293 291 290 289 288 288 287 287 287 286 286 285 285 284 284 285 284 282 280 279 278 276 276 276 275 274 274 274 274 274 274 274 274 274 273 272 272 272
292 293 291 290 290 289 289 289 288 288 288 288 287 287 286 286 285 284 284 283 283 282 281 279 278 276 275 275 274 274 273 273 273 273 273 273 273 273 273 272 272 272 272
291 291 290 289 289 289 288 288 288 288 288 288 287 287 286 285 284 283 283 283 282 280 278 277 276 275 275 275 274 274 273 273 273 273 273 273 272 272 272 272 272 272 272
290 290 290 290 289 289 289 288 288 288 288 287 287 286 285 284 283 283 282 281 280 279 278 276 276 276 275 274 273 273 273 273 272 272 272 272 272 272 272 271 271 271 270
290 290 290 289 289 289 289 289 288 287 286 285 285 284 284 283 282 281 281 281 280 278 277 276 275 275 274 274 273 273 273 272 272 271 271 271 271 271 272 271 271 270 269
289 289 289 289 289 288 288 288 287 286 285 284 284 284 283 282 280 280 279 275 275 276 276 275 275 274 274 273 272 272 272 271 271 271 271 270 270 270 270 271 270 270 269
289 288 288 288 288 287 287 286 285 284 283 283 282 281 279 276 275 275 275 275 275 275 275 274 274 273 273 272 272 271 271 271 271 270 270 270 270 270 270 270 270 270 269
289 288 288 287 286 285 285 284 284 284 283 281 280 279 278 277 277 276 273 273 274 274 273 273 273 273 272 271 271 271 271 271 271 270 270 269 270 269 269 270 270 269 269
289 288 287 286 284 284 283 283 282 281 281 280 279 277 276 275 274 273 271 272 272 272 272 272 272 271 271 271 270 270 270 270 270 269 269 269 269 269 269 269 270 270 269
286 285 285 284 284 282 282 281 280 278 277 276 275 274 273 271 271 271 270 270 270 270 271 271 271 270 270 270 270 270 270 270 269 269 269 269 269 269 269 269 269 270 269
284 283 283 282 281 280 278 277 276 275 274 273 272 271 269 267 267 267 267 267 267 268 269 269 269 269 269 269 269 269 269 269 269 268 268 268 269 269 269 269 269 269 269
282 281 280 279 278 277 276 275 274 273 272 271 270 269 268 267 266 265 265 265 265 266 266 267 268 268 268 268 269 268 268 268 268 267 267 268 268 268 268 269 269 269 269
278 277 276 275 275 274 273 272 271 271 271 270 269 268 267 266 266 265 265 265 265 265 266 266 267 268 268 268 268 267 267 267 267 267 267 267 268 268 268 268 269 269 269
275 275 274 274 273 272 271 271 270 270 269 269 268 267 266 266 265 265 265 265 265 265 266 266 266 267 268 267 267 267 267 267 267 267 267 267 268 268 268 268 268 268 268
274 273 273 272 271 270 270 269 269 269 268 268 267 267 266 266 266 265 265 265 265 265 266 266 266 267 267 266 266 267 267 267 267 267 267 267 267 267 268 268 268 268 268
272 271 271 270 270 269 269 268 268 268 267 267 267 266 266 265 266 265 265 264 265 265 265 266 266 266 266 266 266 266 266 266 267 267 267 267 267 268 268 268 268 268 268

GFSGL_850_thetae_045.txt.gz
Theta_e
299 298 298 297 297 297 296 295 295 294 293 292 291 291 290 290 289 288 288 288 287 287 286 285 284 283 283 283 283 283 282 281 282 284 283 283 282 281 281 281 281 280 280
298 297 297 297 297 296 296 295 294 293 292 291 291 290 290 289 289 288 288 288 287 287 286 286 284 284 283 283 283 283 282 282 281 282 282 282 282 281 280 280 280 280 279
297 297 297 297 296 296 295 295 294 293 291 291 290 290 289 289 289 288 288 288 287 287 286 286 285 284 283 283 282 282 282 282 281 281 281 281 280 279 279 279 278 278 278
297 297 297 297 296 295 294 294 293 292 291 290 290 289 289 288 288 288 288 287 287 287 287 286 286 285 284 282 282 282 281 281 280 280 280 279 278 278 277 276 277 277 276
296 296 297 296 295 294 294 293 291 291 290 289 289 289 288 288 288 288 287 287 287 287 286 286 285 285 284 282 281 281 280 280 279 279 278 278 277 276 276 276 275 276 276
296 296 295 295 294 294 293 292 291 290 289 289 289 288 288 288 288 287 287 287 287 287 286 286 285 285 284 282 281 280 279 279 278 277 277 276 276 275 275 275 275 275 277
296 295 295 294 294 294 293 291 291 290 289 289 289 288 288 287 287 287 287 286 286 286 286 286 285 285 283 281 280 279 279 278 277 277 276 275 275 275 275 275 275 275 275
296 295 294 294 293 293 292 292 290 289 289 289 288 288 287 287 287 287 286 286 286 285 285 285 285 284 282 280 280 279 279 278 277 276 275 275 274 274 274 273 273 273 273
296 296 295 294 293 293 293 292 290 289 289 288 288 287 287 287 287 286 286 286 285 285 285 285 284 284 281 280 279 279 278 277 277 275 275 275 274 274 274 273 273 271 272
296 296 295 295 295 295 294 292 291 290 289 288 287 288 288 288 287 286 285 285 285 285 284 284 284 283 281 279 278 277 277 277 276 276 275 275 274 274 274 273 272 270 271
297 296 296 296 295 294 293 293 291 290 289 288 288 288 288 287 286 286 285 284 284 284 284 284 283 282 280 279 277 277 276 275 274 274 274 274 274 274 274 273 272 271 270
297 296 294 293 293 294 293 292 291 290 289 289 288 288 288 287 287 285 285 284 284 284 284 283 283 282 280 278 277 276 276 274 274 273 273 274 274 273 273 273 272 272 272
293 292 292 293 291 290 290 289 289 289 288 288 288 288 288 287 286 285 284 284 283 282 282 282 281 280 276 276 276 275 275 274 273 273 273 273 273 272 272 272 273 272 272
291 291 291 290 290 290 289 289 288 288 288 288 288 287 287 285 284 284 283 282 281 281 281 280 279 277 276 276 276 275 274 273 272 272 272 272 272 272 272 271 271 272 272
291 291 290 290 290 289 289 289 288 288 288 287 286 285 284 284 284 283 283 282 281 280 280 279 278 277 276 276 275 274 273 272 272 271 271 271 271 271 271 271 271 271 271
290 290 290 289 289 289 288 288 288 288 287 286 285 284 284 284 283 283 282 281 277 277 277 277 276 276 275 275 274 274 273 272 271 271 271 270 270 270 270 270 270 270 271
290 289 289 288 288 288 288 287 287 286 285 284 283 283 283 282 280 276 276 276 276 276 276 276 277 276 276 274 274 273 272 271 271 270 270 270 269 269 269 270 269 270 270
290 290 289 288 287 287 287 286 285 284 283 282 282 283 281 280 278 277 274 273 274 274 274 274 275 275 274 273 272 272 271 270 270 270 269 269 269 268 269 269 269 269 269
289 289 289 288 287 286 285 284 283 283 283 282 281 279 278 276 275 274 272 272 271 271 271 271 271 271 271 271 271 270 270 270 269 269 269 269 268 268 269 269 269 269 269
289 288 287 286 285 284 283 283 282 281 280 278 276 275 275 275 274 273 272 270 269 269 269 268 268 268 269 269 269 269 269 269 269 268 268 268 268 268 268 268 268 269 269
286 285 284 283 283 282 281 280 279 277 276 275 275 274 273 272 272 270 269 268 267 266 266 266 266 266 267 267 267 268 268 268 268 267 267 267 267 268 268 268 268 268 269
283 282 282 281 281 279 278 277 276 275 274 274 273 272 272 271 269 268 268 267 266 266 265 265 265 265 266 266 267 267 267 268 268 266 266 267 267 267 268 268 268 268 268
281 280 279 278 277 276 276 275 274 273 273 272 272 271 270 269 268 268 267 266 266 266 265 265 265 265 266 266 266 266 267 267 266 266 266 266 267 267 268 268 268 268 268
278 277 276 275 275 275 274 273 272 272 271 271 270 269 268 268 268 267 267 266 266 266 265 265 265 266 266 266 266 266 267 266 266 266 266 266 267 267 267 268 268 268 267
274 274 274 274 273 272 272 272 271 271 270 269 268 268 268 268 268 267 267 266 266 266 266 266 266 266 266 266 266 266 266 266 266 266 266 266 267 267 267 267 267 268 268
274 274 273 272 271 271 270 270 269 268 268 267 267 267 267 267 267 266 266 266 266 266 266 266 266 266 266 266 265 265 265 265 266 265 265 266 267 267 267 267 268 267 268

GFSGL_850_thetae_048.txt.gz
Theta_e
309 304 301 299 297 296 296 296 296 295 295 295 294 293 292 291 290 290 289 289 288 288 287 287 286 286 285 284 283 283 283 282 282 283 283 283 283 283 282 282 281 281 280
305 301 299 298 296 296 296 296 295 295 295 294 293 292 291 291 290 289 289 288 288 288 287 287 286 286 285 285 284 283 282 282 281 282 282 282 282 282 282 281 280 280 279
300 299 298 297 296 296 296 295 295 295 294 293 292 291 291 290 289 289 288 288 288 288 287 287 287 286 286 285 285 284 282 281 281 280 281 281 282 281 281 279 278 278 278
298 297 296 296 296 296 296 295 295 294 293 292 291 291 290 289 289 289 288 288 288 287 287 287 287 286 286 285 284 284 282 281 281 280 280 281 280 280 277 276 277 277 277
297 297 296 296 295 295 295 294 294 293 292 291 290 290 289 289 289 288 288 288 287 287 287 287 287 286 286 285 284 284 282 281 280 279 279 279 279 277 276 276 275 275 276
297 296 295 295 295 294 294 293 293 292 291 290 290 289 288 289 288 288 288 287 287 287 287 286 286 286 286 285 284 283 282 280 279 279 278 277 277 276 275 275 274 274 275
296 295 294 294 294 293 293 293 292 292 291 290 289 289 288 288 288 288 287 287 287 286 286 286 286 286 285 285 284 283 282 280 278 277 277 277 276 275 274 274 274 273 273
295 295 294 294 293 293 293 292 292 293 290 290 290 288 288 288 287 287 287 287 286 286 286 286 285 285 285 284 284 283 282 280 279 278 277 276 275 274 274 273 273 273 274
296 295 294 294 293 294 293 292 291 294 291 294 289 288 287 287 287 287 286 286 286 286 286 285 285 285 284 284 283 283 282 281 279 277 276 276 275 274 273 273 273 273 274
298 297 295 295 297 293 292 292 295 295 294 289 288 288 287 287 287 287 286 286 286 286 286 285 284 284 283 283 282 282 281 280 278 277 277 276 275 274 273 273 273 272 271
305 305 304 300 297 293 291 293 295 293 289 289 288 288 287 287 287 286 286 286 286 285 285 285 284 283 283 282 281 280 280 278 277 276 276 275 274 274 274 273 273 272 271
303 298 295 294 293 293 292 293 292 291 290 289 288 288 288 287 287 286 286 285 285 285 285 285 284 283 282 282 279 278 277 277 277 276 275 274 274 273 273 273 272 272 272
297 296 295 295 294 294 293 293 292 291 291 290 290 289 288 288 287 286 285 285 284 284 284 284 283 282 281 278 277 277 277 277 276 275 274 273 273 273 273 272 272 272 272
296 295 294 293 293 293 293 292 291 290 289 289 288 288 288 287 286 285 285 284 284 284 284 283 281 279 278 277 277 277 276 276 275 274 273 272 272 272 272 271 271 271 271
292 292 291 291 291 291 290 289 289 288 288 288 288 287 287 286 285 284 284 284 283 283 282 281 280 279 278 277 277 276 276 275 274 273 272 271 271 271 271 271 270 270 270
291 291 291 290 290 290 289 289 288 288 288 288 287 287 286 285 284 284 283 283 283 279 278 278 278 277 277 276 276 276 275 274 273 272 272 271 271 270 270 270 270 270 270
290 290 290 290 289 289 289 288 288 288 287 287 286 284 284 284 283 282 282 279 277 277 276 276 276 276 275 275 274 274 274 273 272 272 271 270 270 270 269 269 269 269 269
290 289 289 289 289 288 287 287 286 286 285 284 283 283 282 282 281 280 279 278 277 275 274 274 273 273 273 272 272 271 271 271 271 270 270 269 269 269 269 268 268 268 269
289 289 289 289 288 288 287 286 285 284 284 283 282 281 281 280 278 276 275 275 274 274 273 272 271 270 269 269 269 269 269 269 269 269 269 269 269 268 268 268 268 268 268
289 289 288 288 288 287 286 285 284 283 283 282 281 279 277 276 275 275 274 274 273 272 271 270 269 268 267 267 266 267 267 268 268 268 268 268 268 267 267 267 268 268 268
288 288 287 286 286 285 284 283 283 282 280 278 277 275 274 275 275 274 273 272 271 271 270 268 267 267 266 266 266 266 266 266 267 267 267 267 267 267 266 267 267 268 268
285 284 284 283 283 283 282 280 279 277 276 276 275 274 273 273 272 272 271 270 269 268 267 267 267 266 266 265 265 266 266 266 266 267 267 267 266 266 266 266 267 268 268
283 282 281 281 280 279 278 277 276 275 275 274 274 273 272 272 271 270 270 269 268 267 267 266 266 266 266 266 266 265 266 266 267 267 267 266 266 266 266 266 267 268 268
280 280 279 279 278 277 275 275 274 274 273 273 272 272 271 271 270 269 269 268 268 267 267 266 266 266 266 266 266 266 266 266 267 267 266 266 266 266 266 266 267 267 267
278 277 276 274 274 273 273 273 272 272 272 271 271 270 270 269 269 268 268 268 267 267 267 267 266 266 266 266 266 266 266 266 266 266 266 266 266 266 266 266 267 267 267
274 273 273 273 273 272 272 271 271 271 270 270 269 268 268 268 267 267 267 267 266 266 266 266 265 265 265 265 265 266 266 265 265 265 265 266 266 266 266 267 267 267 267